Time,TemperatureF,DewpointF,PressureIn,WindDirection,WindDirectionDegrees,WindSpeedMPH,WindSpeedGustMPH,Humidity,HourlyPrecipIn,Conditions,Clouds,dailyrainin,SolarRadiationWatts/m^2,SoftwareType,DateUTC
2013-09-29 00:04:00,54.2,33.3,29.58,SSW,211,20.0,21.0,45,0.00,,,0.00,0,Wunderground v.1.15,2013-09-29 06:04:00,
2013-09-29 00:10:00,54.3,33.4,29.58,SW,224,24.0,24.0,45,0.00,,,0.00,0,Wunderground v.1.15,2013-09-29 06:10:00,
2013-09-29 00:16:00,54.2,33.3,29.59,South,175,13.0,31.0,45,0.00,,,0.00,0,Wunderground v.1.15,2013-09-29 06:16:00,
2013-09-29 00:22:00,54.2,33.3,29.59,SSW,205,18.0,30.0,45,0.00,,,0.00,0,Wunderground v.1.15,2013-09-29 06:22:00,
2013-09-29 00:28:00,54.2,32.7,29.60,SW,224,14.0,32.0,44,0.00,,,0.00,0,Wunderground v.1.15,2013-09-29 06:28:00,
2013-09-29 00:33:00,54.3,32.8,29.60,WSW,241,18.0,18.0,44,0.00,,,0.00,0,Wunderground v.1.15,2013-09-29 06:33:00,
2013-09-29 00:39:00,54.3,32.8,29.60,South,180,15.0,22.0,44,0.00,,,0.00,0,Wunderground v.1.15,2013-09-29 06:39:00,
2013-09-29 00:44:00,54.3,32.8,29.60,SW,216,13.0,17.0,44,0.00,,,0.00,0,Wunderground v.1.15,2013-09-29 06:44:00,
2013-09-29 00:49:00,54.2,32.7,29.59,SW,217,19.0,19.0,44,0.00,,,0.00,0,Wunderground v.1.15,2013-09-29 06:49:00,
2013-09-29 00:55:00,54.3,32.8,29.60,West,272,16.0,17.0,44,0.00,,,0.00,0,Wunderground v.1.15,2013-09-29 06:55:00,
2013-09-29 01:00:00,54.2,32.7,29.60,West,267,6.0,12.0,44,0.00,,,0.00,0,Wunderground v.1.15,2013-09-29 07:00:00,
2013-09-29 01:06:00,54.3,32.8,29.60,WNW,290,5.0,14.0,44,0.00,,,0.00,0,Wunderground v.1.15,2013-09-29 07:06:00,
2013-09-29 01:12:00,54.3,32.8,29.58,West,277,19.0,21.0,44,0.00,,,0.00,0,Wunderground v.1.15,2013-09-29 07:12:00,
2013-09-29 01:17:00,54.6,32.5,29.57,SW,218,10.0,22.0,43,0.00,,,0.00,0,Wunderground v.1.15,2013-09-29 07:17:00,
2013-09-29 01:23:00,54.5,32.4,29.56,WSW,249,11.0,14.0,43,0.00,,,0.00,0,Wunderground v.1.15,2013-09-29 07:23:00,
2013-09-29 01:28:00,54.6,32.5,29.56,SSW,213,21.0,21.0,43,0.00,,,0.00,0,Wunderground v.1.15,2013-09-29 07:28:00,
2013-09-29 01:33:00,54.7,32.6,29.56,SSW,205,15.0,21.0,43,0.00,,,0.00,0,Wunderground v.1.15,2013-09-29 07:33:00,
2013-09-29 01:39:00,54.8,32.1,29.55,SW,223,11.0,24.0,42,0.00,,,0.00,0,Wunderground v.1.15,2013-09-29 07:39:00,
2013-09-29 01:45:00,55.0,32.3,29.56,SW,216,13.0,30.0,42,0.00,,,0.00,0,Wunderground v.1.15,2013-09-29 07:45:00,
2013-09-29 01:50:00,55.0,32.3,29.55,WSW,241,11.0,16.0,42,0.00,,,0.00,0,Wunderground v.1.15,2013-09-29 07:50:00,
2013-09-29 01:55:00,54.9,32.2,29.56,SSW,198,8.0,21.0,42,0.00,,,0.00,0,Wunderground v.1.15,2013-09-29 07:55:00,
2013-09-29 02:01:00,55.1,31.8,29.56,SE,145,20.0,21.0,41,0.00,,,0.00,0,Wunderground v.1.15,2013-09-29 08:01:00,
2013-09-29 02:07:00,55.0,31.7,29.56,SW,224,23.0,28.0,41,0.00,,,0.00,0,Wunderground v.1.15,2013-09-29 08:07:00,
2013-09-29 02:12:00,55.0,31.7,29.56,SW,216,17.0,22.0,41,0.00,,,0.00,0,Wunderground v.1.15,2013-09-29 08:12:00,
2013-09-29 02:17:00,54.9,31.6,29.55,South,191,11.0,28.0,41,0.00,,,0.00,0,Wunderground v.1.15,2013-09-29 08:17:00,
2013-09-29 02:22:00,54.8,31.5,29.56,South,175,27.0,29.0,41,0.00,,,0.00,0,Wunderground v.1.15,2013-09-29 08:22:00,
2013-09-29 02:27:00,54.9,31.6,29.54,SE,131,17.0,29.0,41,0.00,,,0.00,0,Wunderground v.1.15,2013-09-29 08:27:00,
2013-09-29 02:32:00,54.7,31.4,29.54,SSE,156,10.0,15.0,41,0.00,,,0.00,0,Wunderground v.1.15,2013-09-29 08:32:00,
2013-09-29 02:37:00,54.8,31.5,29.54,SSW,205,16.0,24.0,41,0.00,,,0.00,0,Wunderground v.1.15,2013-09-29 08:37:00,
2013-09-29 02:42:00,55.0,31.7,29.53,SSE,155,28.0,29.0,41,0.00,,,0.00,0,Wunderground v.1.15,2013-09-29 08:42:00,
2013-09-29 02:47:00,54.9,31.6,29.53,WSW,242,11.0,29.0,41,0.00,,,0.00,0,Wunderground v.1.15,2013-09-29 08:47:00,
2013-09-29 02:53:00,54.8,31.5,29.52,South,175,8.0,29.0,41,0.00,,,0.00,0,Wunderground v.1.15,2013-09-29 08:53:00,
2013-09-29 02:58:00,54.9,31.6,29.53,WSW,243,17.0,38.0,41,0.00,,,0.00,0,Wunderground v.1.15,2013-09-29 08:58:00,
2013-09-29 03:03:00,54.8,31.5,29.52,West,266,27.0,31.0,41,0.00,,,0.00,0,Wunderground v.1.15,2013-09-29 09:03:00,
2013-09-29 03:08:00,54.7,31.4,29.52,WSW,247,15.0,41.0,41,0.00,,,0.00,0,Wunderground v.1.15,2013-09-29 09:08:00,
2013-09-29 03:13:00,54.7,31.4,29.51,SSW,208,17.0,34.0,41,0.00,,,0.00,0,Wunderground v.1.15,2013-09-29 09:13:00,
2013-09-29 03:18:00,54.8,31.5,29.50,West,264,22.0,40.0,41,0.00,,,0.00,0,Wunderground v.1.15,2013-09-29 09:18:00,
2013-09-29 03:23:00,54.5,31.3,29.50,WNW,285,32.0,43.0,41,0.00,,,0.00,0,Wunderground v.1.15,2013-09-29 09:23:00,
2013-09-29 03:28:00,54.4,31.2,29.48,SSW,204,24.0,43.0,41,0.00,,,0.00,0,Wunderground v.1.15,2013-09-29 09:28:00,
2013-09-29 03:33:00,54.4,31.2,29.48,SSW,213,7.0,41.0,41,0.00,,,0.00,0,Wunderground v.1.15,2013-09-29 09:33:00,
2013-09-29 03:38:00,54.4,31.2,29.48,SSE,158,38.0,43.0,41,0.00,,,0.00,0,Wunderground v.1.15,2013-09-29 09:38:00,
2013-09-29 03:43:00,54.4,31.2,29.47,SSE,160,16.0,38.0,41,0.00,,,0.00,0,Wunderground v.1.15,2013-09-29 09:43:00,
2013-09-29 03:48:00,54.5,31.3,29.49,SSE,156,32.0,44.0,41,0.00,,,0.00,0,Wunderground v.1.15,2013-09-29 09:48:00,
2013-09-29 03:53:00,54.4,31.2,29.46,SSW,201,29.0,36.0,41,0.00,,,0.00,0,Wunderground v.1.15,2013-09-29 09:53:00,
2013-09-29 03:58:00,54.5,31.3,29.45,SW,221,32.0,45.0,41,0.00,,,0.00,0,Wunderground v.1.15,2013-09-29 09:58:00,
2013-09-29 04:03:00,54.5,31.3,29.46,SSE,147,10.0,52.0,41,0.00,,,0.00,0,Wunderground v.1.15,2013-09-29 10:03:00,
2013-09-29 04:08:00,54.4,31.2,29.43,SSW,207,46.0,52.0,41,0.00,,,0.00,0,Wunderground v.1.15,2013-09-29 10:08:00,
2013-09-29 04:13:00,54.3,31.1,29.43,South,189,28.0,44.0,41,0.00,,,0.00,0,Wunderground v.1.15,2013-09-29 10:13:00,
2013-09-29 04:18:00,54.3,31.1,29.45,SSW,207,32.0,48.0,41,0.00,,,0.00,0,Wunderground v.1.15,2013-09-29 10:18:00,
2013-09-29 04:23:00,54.2,31.0,29.45,South,169,20.0,56.0,41,0.00,,,0.00,0,Wunderground v.1.15,2013-09-29 10:23:00,
2013-09-29 04:28:00,54.2,31.0,29.46,SSW,207,32.0,56.0,41,0.00,,,0.00,0,Wunderground v.1.15,2013-09-29 10:28:00,
2013-09-29 04:33:00,54.2,31.0,29.47,SW,221,31.0,42.0,41,0.00,,,0.00,0,Wunderground v.1.15,2013-09-29 10:33:00,
2013-09-29 04:38:00,54.3,31.1,29.47,SSE,153,14.0,42.0,41,0.00,,,0.00,0,Wunderground v.1.15,2013-09-29 10:38:00,
2013-09-29 04:43:00,54.3,31.1,29.46,South,171,15.0,36.0,41,0.00,,,0.00,0,Wunderground v.1.15,2013-09-29 10:43:00,
2013-09-29 04:48:00,54.2,31.0,29.46,SSE,151,25.0,41.0,41,0.00,,,0.00,0,Wunderground v.1.15,2013-09-29 10:48:00,
2013-09-29 04:53:00,54.2,31.0,29.47,SSW,195,21.0,40.0,41,0.00,,,0.00,0,Wunderground v.1.15,2013-09-29 10:53:00,
2013-09-29 04:58:00,54.2,31.0,29.47,SSW,212,19.0,47.0,41,0.00,,,0.00,0,Wunderground v.1.15,2013-09-29 10:58:00,
2013-09-29 05:03:00,54.3,31.1,29.47,SSW,210,16.0,40.0,41,0.00,,,0.00,0,Wunderground v.1.15,2013-09-29 11:03:00,
2013-09-29 05:08:00,54.3,31.1,29.47,SW,232,26.0,40.0,41,0.00,,,0.00,0,Wunderground v.1.15,2013-09-29 11:08:00,
2013-09-29 05:13:00,54.2,31.0,29.47,SSW,194,21.0,33.0,41,0.00,,,0.00,0,Wunderground v.1.15,2013-09-29 11:13:00,
2013-09-29 05:18:00,54.2,31.0,29.46,South,189,19.0,34.0,41,0.00,,,0.00,0,Wunderground v.1.15,2013-09-29 11:18:00,
2013-09-29 05:23:00,54.4,31.2,29.46,SW,230,18.0,39.0,41,0.00,,,0.00,0,Wunderground v.1.15,2013-09-29 11:23:00,
2013-09-29 05:28:00,54.4,30.6,29.45,South,175,14.0,41.0,40,0.00,,,0.00,0,Wunderground v.1.15,2013-09-29 11:28:00,
2013-09-29 05:33:00,54.3,31.1,29.45,SE,137,19.0,40.0,41,0.00,,,0.00,0,Wunderground v.1.15,2013-09-29 11:33:00,
2013-09-29 05:39:00,54.5,30.6,29.45,SW,230,22.0,40.0,40,0.00,,,0.00,0,Wunderground v.1.15,2013-09-29 11:39:00,
2013-09-29 05:44:00,54.4,30.6,29.45,SW,232,27.0,33.0,40,0.00,,,0.00,0,Wunderground v.1.15,2013-09-29 11:44:00,
2013-09-29 05:49:00,54.4,30.6,29.43,SSE,160,22.0,42.0,40,0.00,,,0.00,0,Wunderground v.1.15,2013-09-29 11:49:00,
2013-09-29 05:54:00,54.5,30.6,29.44,South,170,28.0,41.0,40,0.00,,,0.00,0,Wunderground v.1.15,2013-09-29 11:54:00,
2013-09-29 05:59:00,54.5,30.6,29.44,SW,235,28.0,41.0,40,0.00,,,0.00,0,Wunderground v.1.15,2013-09-29 11:59:00,
2013-09-29 06:04:00,54.5,30.0,29.43,SE,138,17.0,42.0,39,0.00,,,0.00,0,Wunderground v.1.15,2013-09-29 12:04:00,
2013-09-29 06:09:00,54.5,30.0,29.42,SW,223,29.0,42.0,39,0.00,,,0.00,0,Wunderground v.1.15,2013-09-29 12:09:00,
2013-09-29 06:14:00,54.6,30.1,29.44,SSW,213,35.0,36.0,39,0.00,,,0.00,0,Wunderground v.1.15,2013-09-29 12:14:00,
2013-09-29 06:19:00,54.7,30.2,29.43,South,180,25.0,39.0,39,0.00,,,0.00,0,Wunderground v.1.15,2013-09-29 12:19:00,
2013-09-29 06:24:00,54.8,30.3,29.44,South,190,32.0,38.0,39,0.00,,,0.00,0,Wunderground v.1.15,2013-09-29 12:24:00,
2013-09-29 06:29:00,54.7,30.2,29.42,WSW,254,27.0,40.0,39,0.00,,,0.00,0,Wunderground v.1.15,2013-09-29 12:29:00,
2013-09-29 06:34:00,54.6,30.1,29.41,SW,216,29.0,45.0,39,0.00,,,0.00,0,Wunderground v.1.15,2013-09-29 12:34:00,
2013-09-29 06:39:00,54.9,30.4,29.42,SW,231,17.0,49.0,39,0.00,,,0.00,0,Wunderground v.1.15,2013-09-29 12:39:00,
2013-09-29 06:44:00,55.0,30.5,29.39,WSW,240,29.0,39.0,39,0.00,,,0.00,0,Wunderground v.1.15,2013-09-29 12:44:00,
2013-09-29 06:50:00,55.0,30.5,29.40,SW,221,17.0,25.0,39,0.00,,,0.00,0,Wunderground v.1.15,2013-09-29 12:50:00,
2013-09-29 06:55:00,55.0,30.5,29.40,SW,217,26.0,51.0,39,0.00,,,0.00,0,Wunderground v.1.15,2013-09-29 12:55:00,
2013-09-29 07:00:00,55.3,30.7,29.37,SSW,208,17.0,33.0,39,0.00,,,0.00,0,Wunderground v.1.15,2013-09-29 13:00:00,
2013-09-29 07:05:00,55.2,30.7,29.39,SSW,202,27.0,50.0,39,0.00,,,0.00,0,Wunderground v.1.15,2013-09-29 13:05:00,
2013-09-29 07:10:00,55.2,31.3,29.40,WSW,239,25.0,28.0,40,0.00,,,0.00,0,Wunderground v.1.15,2013-09-29 13:10:00,
2013-09-29 07:15:00,55.2,31.3,29.38,SSE,147,18.0,48.0,40,0.00,,,0.00,0,Wunderground v.1.15,2013-09-29 13:15:00,
2013-09-29 07:20:00,55.2,31.3,29.40,South,180,24.0,47.0,40,0.00,,,0.00,0,Wunderground v.1.15,2013-09-29 13:20:00,
2013-09-29 07:25:00,55.0,31.1,29.40,SW,236,21.0,47.0,40,0.00,,,0.00,0,Wunderground v.1.15,2013-09-29 13:25:00,
2013-09-29 07:30:00,54.8,31.5,29.39,SSE,166,24.0,43.0,41,0.00,,,0.00,5,Wunderground v.1.15,2013-09-29 13:30:00,
2013-09-29 07:35:00,54.8,31.5,29.40,SSW,207,25.0,47.0,41,0.00,,,0.00,7,Wunderground v.1.15,2013-09-29 13:35:00,
2013-09-29 07:40:00,54.7,32.0,29.39,SSE,162,29.0,30.0,42,0.00,,,0.00,7,Wunderground v.1.15,2013-09-29 13:40:00,
2013-09-29 07:45:00,54.4,31.8,29.39,SSW,200,31.0,41.0,42,0.00,,,0.00,9,Wunderground v.1.15,2013-09-29 13:45:00,
2013-09-29 07:50:00,54.4,31.8,29.38,SE,139,26.0,37.0,42,0.00,,,0.00,12,Wunderground v.1.15,2013-09-29 13:50:00,
2013-09-29 07:56:00,54.1,32.1,29.40,WSW,238,46.0,46.0,43,0.00,,,0.00,21,Wunderground v.1.15,2013-09-29 13:56:00,
2013-09-29 08:01:00,54.2,32.2,29.39,SE,129,30.0,50.0,43,0.00,,,0.00,33,Wunderground v.1.15,2013-09-29 14:01:00,
2013-09-29 08:06:00,54.3,32.3,29.40,SSW,203,35.0,50.0,43,0.00,,,0.00,40,Wunderground v.1.15,2013-09-29 14:06:00,
2013-09-29 08:11:00,54.1,32.6,29.41,SSW,213,24.0,35.0,44,0.00,,,0.00,49,Wunderground v.1.15,2013-09-29 14:11:00,
2013-09-29 08:16:00,54.1,32.6,29.41,WSW,245,32.0,35.0,44,0.00,,,0.00,49,Wunderground v.1.15,2013-09-29 14:16:00,
2013-09-29 08:21:00,54.0,32.6,29.40,South,185,23.0,28.0,44,0.00,,,0.00,56,Wunderground v.1.15,2013-09-29 14:21:00,
2013-09-29 08:26:00,54.2,32.7,29.38,SSE,164,18.0,44.0,44,0.00,,,0.00,54,Wunderground v.1.15,2013-09-29 14:26:00,
2013-09-29 08:31:00,54.2,33.3,29.40,SSE,168,29.0,44.0,45,0.00,,,0.00,49,Wunderground v.1.15,2013-09-29 14:31:00,
2013-09-29 08:36:00,54.1,33.2,29.40,SSE,165,32.0,45.0,45,0.00,,,0.00,39,Wunderground v.1.15,2013-09-29 14:36:00,
2013-09-29 08:41:00,53.5,34.3,29.42,SSW,197,21.0,44.0,48,0.00,,,0.00,46,Wunderground v.1.15,2013-09-29 14:41:00,
2013-09-29 08:46:00,52.8,34.2,29.42,SSW,211,29.0,44.0,49,0.00,,,0.00,76,Wunderground v.1.15,2013-09-29 14:46:00,
2013-09-29 08:51:00,52.6,34.5,29.41,South,185,21.0,42.0,50,0.00,,,0.00,97,Wunderground v.1.15,2013-09-29 14:51:00,
2013-09-29 08:56:00,52.8,34.7,29.41,WSW,244,26.0,42.0,50,0.00,,,0.00,278,Wunderground v.1.15,2013-09-29 14:56:00,
2013-09-29 09:01:00,53.1,34.4,29.41,SW,223,44.0,44.0,49,0.00,,,0.00,371,Wunderground v.1.15,2013-09-29 15:01:00,
2013-09-29 09:06:00,52.9,34.8,29.40,SSW,206,18.0,44.0,50,0.00,,,0.00,114,Wunderground v.1.15,2013-09-29 15:06:00,
2013-09-29 09:11:00,52.4,34.8,29.41,SSE,166,21.0,38.0,51,0.00,,,0.00,111,Wunderground v.1.15,2013-09-29 15:11:00,
2013-09-29 09:16:00,52.3,34.7,29.40,SSW,199,22.0,49.0,51,0.00,,,0.00,130,Wunderground v.1.15,2013-09-29 15:16:00,
2013-09-29 09:22:00,52.3,35.2,29.40,SSW,194,36.0,40.0,52,0.00,,,0.00,125,Wunderground v.1.15,2013-09-29 15:22:00,
2013-09-29 09:27:00,52.0,35.4,29.38,SSW,199,34.0,44.0,53,0.00,,,0.00,104,Wunderground v.1.15,2013-09-29 15:27:00,
2013-09-29 09:32:00,52.0,35.4,29.36,SW,221,36.0,45.0,53,0.00,,,0.00,120,Wunderground v.1.15,2013-09-29 15:32:00,
2013-09-29 09:37:00,52.3,35.7,29.37,SSW,204,22.0,45.0,53,0.00,,,0.00,373,Wunderground v.1.15,2013-09-29 15:37:00,
2013-09-29 09:42:00,52.6,35.9,29.36,South,175,29.0,40.0,53,0.00,,,0.00,357,Wunderground v.1.15,2013-09-29 15:42:00,
2013-09-29 09:47:00,52.6,35.5,29.38,SE,143,42.0,56.0,52,0.00,,,0.00,420,Wunderground v.1.15,2013-09-29 15:47:00,
2013-09-29 09:52:00,53.0,35.8,29.37,SW,220,34.0,35.0,52,0.00,,,0.00,434,Wunderground v.1.15,2013-09-29 15:52:00,
2013-09-29 09:57:00,53.4,35.7,29.38,SW,215,33.0,49.0,51,0.00,,,0.00,461,Wunderground v.1.15,2013-09-29 15:57:00,
2013-09-29 10:02:00,53.8,35.6,29.38,SSW,210,42.0,42.0,50,0.00,,,0.00,506,Wunderground v.1.15,2013-09-29 16:02:00,
2013-09-29 10:07:00,54.0,35.8,29.37,SSW,212,27.0,42.0,50,0.00,,,0.00,522,Wunderground v.1.15,2013-09-29 16:07:00,
2013-09-29 10:12:00,54.0,35.8,29.39,SSW,198,19.0,42.0,50,0.00,,,0.00,538,Wunderground v.1.15,2013-09-29 16:12:00,
2013-09-29 10:17:00,54.0,35.8,29.41,South,175,18.0,42.0,50,0.00,,,0.00,466,Wunderground v.1.15,2013-09-29 16:17:00,
2013-09-29 10:22:00,53.6,35.9,29.40,SW,227,40.0,40.0,51,0.00,,,0.00,411,Wunderground v.1.15,2013-09-29 16:22:00,
2013-09-29 10:27:00,53.1,35.9,29.38,SW,228,25.0,46.0,52,0.00,,,0.00,348,Wunderground v.1.15,2013-09-29 16:27:00,
2013-09-29 10:32:00,52.6,36.4,29.40,SSW,202,27.0,45.0,54,0.00,,,0.00,387,Wunderground v.1.15,2013-09-29 16:32:00,
2013-09-29 10:37:00,52.3,36.6,29.39,SW,229,48.0,48.0,55,0.00,,,0.00,480,Wunderground v.1.15,2013-09-29 16:37:00,
2013-09-29 10:42:00,52.6,36.4,29.38,SSW,193,24.0,49.0,54,0.00,,,0.00,220,Wunderground v.1.15,2013-09-29 16:42:00,
2013-09-29 10:47:00,52.4,36.2,29.39,SSW,199,17.0,50.0,54,0.00,,,0.00,239,Wunderground v.1.15,2013-09-29 16:47:00,
2013-09-29 10:52:00,52.5,36.3,29.40,South,180,34.0,38.0,54,0.00,,,0.00,197,Wunderground v.1.15,2013-09-29 16:52:00,
2013-09-29 10:57:00,52.7,36.5,29.39,SE,135,20.0,44.0,54,0.00,,,0.00,568,Wunderground v.1.15,2013-09-29 16:57:00,
2013-09-29 11:02:00,53.0,36.8,29.39,South,180,25.0,37.0,54,0.00,,,0.00,557,Wunderground v.1.15,2013-09-29 17:02:00,
2013-09-29 11:07:00,53.1,36.9,29.40,WSW,240,19.0,37.0,54,0.00,,,0.00,571,Wunderground v.1.15,2013-09-29 17:07:00,
2013-09-29 11:12:00,53.6,36.9,29.40,SSE,153,24.0,38.0,53,0.00,,,0.00,587,Wunderground v.1.15,2013-09-29 17:12:00,
2013-09-29 11:17:00,53.7,37.0,29.41,SW,216,26.0,39.0,53,0.00,,,0.00,515,Wunderground v.1.15,2013-09-29 17:17:00,
2013-09-29 11:22:00,53.9,36.7,29.40,SSE,160,24.0,40.0,52,0.00,,,0.00,499,Wunderground v.1.15,2013-09-29 17:22:00,
2013-09-29 11:27:00,54.0,36.8,29.40,South,190,22.0,47.0,52,0.00,,,0.00,621,Wunderground v.1.15,2013-09-29 17:27:00,
2013-09-29 11:33:00,54.1,36.9,29.41,SE,145,22.0,33.0,52,0.00,,,0.00,599,Wunderground v.1.15,2013-09-29 17:33:00,
2013-09-29 11:38:00,54.0,36.8,29.40,SSW,207,28.0,37.0,52,0.00,,,0.00,587,Wunderground v.1.15,2013-09-29 17:38:00,
2013-09-29 11:43:00,53.7,37.0,29.40,South,175,9.0,45.0,53,0.00,,,0.00,475,Wunderground v.1.15,2013-09-29 17:43:00,
2013-09-29 11:48:00,53.9,36.7,29.40,ESE,107,25.0,45.0,52,0.00,,,0.00,599,Wunderground v.1.15,2013-09-29 17:48:00,
2013-09-29 11:53:00,53.7,37.0,29.40,South,180,22.0,38.0,53,0.00,,,0.00,610,Wunderground v.1.15,2013-09-29 17:53:00,
2013-09-29 11:58:00,53.8,37.1,29.41,SW,226,20.0,38.0,53,0.00,,,0.00,710,Wunderground v.1.15,2013-09-29 17:58:00,
2013-09-29 12:03:00,54.1,37.3,29.40,SE,145,7.0,29.0,53,0.00,,,0.00,788,Wunderground v.1.15,2013-09-29 18:03:00,
2013-09-29 12:08:00,54.3,37.0,29.40,SW,220,25.0,44.0,52,0.00,,,0.00,793,Wunderground v.1.15,2013-09-29 18:08:00,
2013-09-29 12:13:00,54.4,37.1,29.40,SSE,153,19.0,36.0,52,0.00,,,0.00,854,Wunderground v.1.15,2013-09-29 18:13:00,
2013-09-29 12:18:00,54.6,37.3,29.38,WSW,239,15.0,36.0,52,0.00,,,0.00,796,Wunderground v.1.15,2013-09-29 18:18:00,
2013-09-29 12:23:00,54.7,37.4,29.39,South,185,14.0,29.0,52,0.00,,,0.00,735,Wunderground v.1.15,2013-09-29 18:23:00,
2013-09-29 12:28:00,54.5,37.2,29.38,SSW,212,23.0,32.0,52,0.00,,,0.00,719,Wunderground v.1.15,2013-09-29 18:28:00,
2013-09-29 12:33:00,54.8,37.5,29.38,SW,228,24.0,35.0,52,0.00,,,0.00,721,Wunderground v.1.15,2013-09-29 18:33:00,
2013-09-29 12:38:00,54.5,37.2,29.38,West,260,17.0,35.0,52,0.00,,,0.00,700,Wunderground v.1.15,2013-09-29 18:38:00,
2013-09-29 12:43:00,55.0,37.2,29.39,SW,217,32.0,33.0,51,0.00,,,0.00,621,Wunderground v.1.15,2013-09-29 18:43:00,
2013-09-29 12:48:00,55.1,37.3,29.37,SSE,158,18.0,34.0,51,0.00,,,0.00,647,Wunderground v.1.15,2013-09-29 18:48:00,
2013-09-29 12:53:00,55.3,37.0,29.38,SSW,194,23.0,33.0,50,0.00,,,0.00,394,Wunderground v.1.15,2013-09-29 18:53:00,
2013-09-29 12:58:00,55.3,37.0,29.38,South,171,16.0,49.0,50,0.00,,,0.00,555,Wunderground v.1.15,2013-09-29 18:58:00,
2013-09-29 13:04:00,55.3,37.0,29.38,SE,142,23.0,27.0,50,0.00,,,0.00,659,Wunderground v.1.15,2013-09-29 19:04:00,
2013-09-29 13:09:00,55.0,37.7,29.37,South,191,8.0,32.0,52,0.00,,,0.00,473,Wunderground v.1.15,2013-09-29 19:09:00,
2013-09-29 13:14:00,54.7,37.4,29.38,SW,221,22.0,38.0,52,0.00,,,0.00,563,Wunderground v.1.15,2013-09-29 19:14:00,
2013-09-29 13:19:00,54.8,37.0,29.38,South,180,23.0,38.0,51,0.00,,,0.00,605,Wunderground v.1.15,2013-09-29 19:19:00,
2013-09-29 13:24:00,54.6,37.3,29.37,SE,129,20.0,34.0,52,0.00,,,0.00,605,Wunderground v.1.15,2013-09-29 19:24:00,
2013-09-29 13:29:00,54.4,37.6,29.38,SW,220,12.0,34.0,53,0.00,,,0.00,649,Wunderground v.1.15,2013-09-29 19:29:00,
2013-09-29 13:34:00,54.4,37.6,29.38,South,185,12.0,37.0,53,0.00,,,0.00,656,Wunderground v.1.15,2013-09-29 19:34:00,
2013-09-29 13:39:00,54.2,37.4,29.38,SSW,199,12.0,37.0,53,0.00,,,0.00,621,Wunderground v.1.15,2013-09-29 19:39:00,
2013-09-29 13:44:00,54.1,37.3,29.38,SSW,212,15.0,37.0,53,0.00,,,0.00,668,Wunderground v.1.15,2013-09-29 19:44:00,
2013-09-29 13:48:00,54.4,38.1,29.39,SSW,212,20.0,37.0,54,0.00,,,0.00,671,Wunderground v.1.15,2013-09-29 19:48:00,
2013-09-29 13:53:00,54.4,37.6,29.38,SSE,168,29.0,29.0,53,0.00,,,0.00,487,Wunderground v.1.15,2013-09-29 19:53:00,
2013-09-29 13:58:00,53.9,37.6,29.39,SW,217,30.0,30.0,54,0.00,,,0.00,540,Wunderground v.1.15,2013-09-29 19:58:00,
2013-09-29 14:03:00,53.9,37.6,29.39,SSW,210,15.0,25.0,54,0.00,,,0.00,645,Wunderground v.1.15,2013-09-29 20:03:00,
2013-09-29 14:08:00,54.1,37.8,29.39,SW,227,30.0,31.0,54,0.00,,,0.00,311,Wunderground v.1.15,2013-09-29 20:08:00,
2013-09-29 14:13:00,54.2,37.4,29.38,South,190,21.0,32.0,53,0.00,,,0.00,541,Wunderground v.1.15,2013-09-29 20:13:00,
2013-09-29 14:18:00,54.3,38.0,29.38,SSW,205,8.0,32.0,54,0.00,,,0.00,480,Wunderground v.1.15,2013-09-29 20:18:00,
2013-09-29 14:23:00,54.4,37.6,29.38,SSW,209,6.0,31.0,53,0.00,,,0.00,285,Wunderground v.1.15,2013-09-29 20:23:00,
2013-09-29 14:28:00,54.6,37.8,29.38,WSW,250,18.0,31.0,53,0.00,,,0.00,459,Wunderground v.1.15,2013-09-29 20:28:00,
2013-09-29 14:33:00,54.6,37.8,29.38,SW,226,18.0,36.0,53,0.00,,,0.00,281,Wunderground v.1.15,2013-09-29 20:33:00,
2013-09-29 14:38:00,54.6,38.3,29.38,SSW,206,15.0,36.0,54,0.00,,,0.00,561,Wunderground v.1.15,2013-09-29 20:38:00,
2013-09-29 14:43:00,54.3,38.0,29.38,South,185,15.0,34.0,54,0.00,,,0.00,253,Wunderground v.1.15,2013-09-29 20:43:00,
2013-09-29 14:48:00,53.8,38.5,29.38,WSW,237,16.0,38.0,56,0.00,,,0.00,397,Wunderground v.1.15,2013-09-29 20:48:00,
2013-09-29 14:53:00,53.7,37.9,29.38,South,191,22.0,32.0,55,0.00,,,0.00,397,Wunderground v.1.15,2013-09-29 20:53:00,
2013-09-29 14:58:00,53.9,38.6,29.37,WSW,239,18.0,32.0,56,0.00,,,0.00,439,Wunderground v.1.15,2013-09-29 20:58:00,
2013-09-29 15:03:00,53.8,38.9,29.38,South,185,29.0,37.0,57,0.00,,,0.00,408,Wunderground v.1.15,2013-09-29 21:03:00,
2013-09-29 15:08:00,53.6,38.7,29.37,WSW,239,13.0,37.0,57,0.00,,,0.00,424,Wunderground v.1.15,2013-09-29 21:08:00,
2013-09-29 15:13:00,53.6,38.3,29.36,SW,234,14.0,33.0,56,0.00,,,0.00,232,Wunderground v.1.15,2013-09-29 21:13:00,
2013-09-29 15:18:00,53.5,38.6,29.36,SSW,211,20.0,42.0,57,0.00,,,0.00,237,Wunderground v.1.15,2013-09-29 21:18:00,
2013-09-29 15:23:00,53.7,38.4,29.34,SSE,148,27.0,36.0,56,0.00,,,0.00,294,Wunderground v.1.15,2013-09-29 21:23:00,
2013-09-29 15:28:00,54.1,38.3,29.35,SSE,153,31.0,40.0,55,0.00,,,0.00,239,Wunderground v.1.15,2013-09-29 21:28:00,
2013-09-29 15:33:00,54.4,38.1,29.36,SW,226,19.0,40.0,54,0.00,,,0.00,399,Wunderground v.1.15,2013-09-29 21:33:00,
2013-09-29 15:38:00,54.8,38.5,29.36,South,180,24.0,40.0,54,0.00,,,0.00,432,Wunderground v.1.15,2013-09-29 21:38:00,
2013-09-29 15:44:00,55.0,38.2,29.36,West,263,24.0,37.0,53,0.00,,,0.00,533,Wunderground v.1.15,2013-09-29 21:44:00,
2013-09-29 15:49:00,55.4,38.5,29.36,South,185,35.0,37.0,53,0.00,,,0.00,429,Wunderground v.1.15,2013-09-29 21:49:00,
2013-09-29 15:54:00,55.7,37.8,29.35,WSW,248,24.0,37.0,51,0.00,,,0.00,410,Wunderground v.1.15,2013-09-29 21:54:00,
2013-09-29 15:59:00,56.1,37.7,29.35,South,180,11.0,37.0,50,0.00,,,0.00,415,Wunderground v.1.15,2013-09-29 21:59:00,
2013-09-29 16:05:00,56.1,37.7,29.34,South,175,12.0,33.0,50,0.00,,,0.00,390,Wunderground v.1.15,2013-09-29 22:05:00,
2013-09-29 16:10:00,55.9,37.5,29.34,SW,228,11.0,22.0,50,0.00,,,0.00,381,Wunderground v.1.15,2013-09-29 22:10:00,
2013-09-29 16:15:00,55.7,37.8,29.34,SW,231,15.0,31.0,51,0.00,,,0.00,297,Wunderground v.1.15,2013-09-29 22:15:00,
2013-09-29 16:20:00,55.2,38.4,29.35,SE,131,22.0,22.0,53,0.00,,,0.00,278,Wunderground v.1.15,2013-09-29 22:20:00,
2013-09-29 16:25:00,54.8,38.0,29.34,SSE,168,17.0,40.0,53,0.00,,,0.00,315,Wunderground v.1.15,2013-09-29 22:25:00,
2013-09-29 16:30:00,54.6,38.7,29.35,SSW,195,23.0,24.0,55,0.00,,,0.00,313,Wunderground v.1.15,2013-09-29 22:30:00,
2013-09-29 16:35:00,54.3,38.5,29.37,SSW,201,13.0,36.0,55,0.00,,,0.00,322,Wunderground v.1.15,2013-09-29 22:35:00,
2013-09-29 16:40:00,54.5,38.2,29.36,SW,231,15.0,27.0,54,0.00,,,0.00,220,Wunderground v.1.15,2013-09-29 22:40:00,
2013-09-29 16:45:00,54.2,37.9,29.36,South,191,5.0,35.0,54,0.00,,,0.00,206,Wunderground v.1.15,2013-09-29 22:45:00,
2013-09-29 16:50:00,54.6,37.8,29.37,SW,218,27.0,27.0,53,0.00,,,0.00,190,Wunderground v.1.15,2013-09-29 22:50:00,
2013-09-29 16:56:00,54.8,38.0,29.37,SSW,210,24.0,40.0,53,0.00,,,0.00,144,Wunderground v.1.15,2013-09-29 22:56:00,
2013-09-29 17:01:00,54.8,38.5,29.37,WSW,258,16.0,23.0,54,0.00,,,0.00,153,Wunderground v.1.15,2013-09-29 23:01:00,
2013-09-29 17:06:00,54.6,38.3,29.37,SSW,202,31.0,31.0,54,0.00,,,0.00,127,Wunderground v.1.15,2013-09-29 23:06:00,
2013-09-29 17:11:00,54.4,38.1,29.35,South,175,14.0,37.0,54,0.00,,,0.00,109,Wunderground v.1.15,2013-09-29 23:11:00,
2013-09-29 17:16:00,54.4,38.1,29.36,SW,217,20.0,37.0,54,0.00,,,0.00,95,Wunderground v.1.15,2013-09-29 23:16:00,
2013-09-29 17:21:00,54.4,37.6,29.34,SW,214,11.0,27.0,53,0.00,,,0.00,128,Wunderground v.1.15,2013-09-29 23:21:00,
2013-09-29 17:26:00,54.8,37.5,29.36,SW,220,34.0,34.0,52,0.00,,,0.00,123,Wunderground v.1.15,2013-09-29 23:26:00,
2013-09-29 17:32:00,54.9,37.6,29.34,SW,230,23.0,27.0,52,0.00,,,0.00,100,Wunderground v.1.15,2013-09-29 23:32:00,
2013-09-29 17:37:00,54.8,37.5,29.35,South,170,12.0,33.0,52,0.00,,,0.00,91,Wunderground v.1.15,2013-09-29 23:37:00,
2013-09-29 17:42:00,54.8,37.5,29.35,WSW,257,15.0,33.0,52,0.00,,,0.00,77,Wunderground v.1.15,2013-09-29 23:42:00,
2013-09-29 17:47:00,55.0,37.2,29.36,West,260,19.0,37.0,51,0.00,,,0.00,60,Wunderground v.1.15,2013-09-29 23:47:00,
2013-09-29 17:52:00,55.1,36.8,29.35,SW,216,13.0,27.0,50,0.00,,,0.00,74,Wunderground v.1.15,2013-09-29 23:52:00,
2013-09-29 17:57:00,55.3,37.0,29.35,SSW,210,24.0,31.0,50,0.00,,,0.00,58,Wunderground v.1.15,2013-09-29 23:57:00,
2013-09-29 18:02:00,55.4,37.1,29.36,WSW,258,37.0,38.0,50,0.00,,,0.00,58,Wunderground v.1.15,2013-09-30 00:02:00,
2013-09-29 18:07:00,55.4,37.1,29.34,South,175,17.0,38.0,50,0.00,,,0.00,40,Wunderground v.1.15,2013-09-30 00:07:00,
2013-09-29 18:12:00,55.4,36.5,29.35,SSW,208,25.0,27.0,49,0.00,,,0.00,49,Wunderground v.1.15,2013-09-30 00:12:00,
2013-09-29 18:17:00,55.4,36.5,29.35,SW,227,17.0,27.0,49,0.00,,,0.00,46,Wunderground v.1.15,2013-09-30 00:17:00,
2013-09-29 18:22:00,55.5,37.1,29.36,SSW,204,24.0,31.0,50,0.00,,,0.00,49,Wunderground v.1.15,2013-09-30 00:22:00,
2013-09-29 18:27:00,55.5,37.1,29.36,WSW,256,12.0,32.0,50,0.00,,,0.00,40,Wunderground v.1.15,2013-09-30 00:27:00,
2013-09-29 18:33:00,55.4,36.5,29.35,SW,220,20.0,35.0,49,0.00,,,0.00,30,Wunderground v.1.15,2013-09-30 00:33:00,
2013-09-29 18:38:00,55.5,36.6,29.35,SSW,213,20.0,38.0,49,0.00,,,0.00,19,Wunderground v.1.15,2013-09-30 00:38:00,
2013-09-29 18:43:00,55.6,36.7,29.35,South,185,28.0,30.0,49,0.00,,,0.00,12,Wunderground v.1.15,2013-09-30 00:43:00,
2013-09-29 18:48:00,55.6,36.7,29.36,SW,228,21.0,35.0,49,0.00,,,0.00,11,Wunderground v.1.15,2013-09-30 00:48:00,
2013-09-29 18:53:00,55.6,36.7,29.35,WSW,248,14.0,28.0,49,0.00,,,0.00,7,Wunderground v.1.15,2013-09-30 00:53:00,
2013-09-29 18:58:00,55.5,36.6,29.38,WSW,244,19.0,33.0,49,0.00,,,0.00,5,Wunderground v.1.15,2013-09-30 00:58:00,
2013-09-29 19:03:00,55.5,36.6,29.37,SSE,163,25.0,31.0,49,0.00,,,0.00,0,Wunderground v.1.15,2013-09-30 01:03:00,
2013-09-29 19:08:00,55.5,36.6,29.37,SSW,208,17.0,31.0,49,0.00,,,0.00,0,Wunderground v.1.15,2013-09-30 01:08:00,
2013-09-29 19:13:00,55.5,36.6,29.38,WSW,242,26.0,26.0,49,0.00,,,0.00,0,Wunderground v.1.15,2013-09-30 01:13:00,
2013-09-29 19:18:00,55.5,36.6,29.38,SSW,211,13.0,28.0,49,0.00,,,0.00,0,Wunderground v.1.15,2013-09-30 01:18:00,
2013-09-29 19:23:00,55.5,36.6,29.38,WSW,239,12.0,29.0,49,0.00,,,0.00,0,Wunderground v.1.15,2013-09-30 01:23:00,
2013-09-29 19:28:00,55.5,36.6,29.37,South,189,22.0,35.0,49,0.00,,,0.00,0,Wunderground v.1.15,2013-09-30 01:28:00,
2013-09-29 19:33:00,55.5,36.6,29.40,SSE,162,19.0,36.0,49,0.00,,,0.00,0,Wunderground v.1.15,2013-09-30 01:33:00,
2013-09-29 19:38:00,55.6,36.2,29.41,WSW,239,22.0,36.0,48,0.00,,,0.00,0,Wunderground v.1.15,2013-09-30 01:38:00,
2013-09-29 19:43:00,55.7,36.8,29.39,SW,217,19.0,29.0,49,0.00,,,0.00,0,Wunderground v.1.15,2013-09-30 01:43:00,
2013-09-29 19:48:00,55.6,36.7,29.40,WSW,250,9.0,29.0,49,0.00,,,0.00,0,Wunderground v.1.15,2013-09-30 01:48:00,
2013-09-29 19:53:00,55.6,36.7,29.39,WSW,237,8.0,27.0,49,0.00,,,0.00,0,Wunderground v.1.15,2013-09-30 01:53:00,
2013-09-29 19:58:00,55.5,36.6,29.39,SW,214,22.0,29.0,49,0.00,,,0.00,0,Wunderground v.1.15,2013-09-30 01:58:00,
2013-09-29 20:03:00,55.6,36.7,29.40,SW,218,26.0,27.0,49,0.00,,,0.00,0,Wunderground v.1.15,2013-09-30 02:03:00,
2013-09-29 20:08:00,55.6,36.7,29.40,SW,226,13.0,27.0,49,0.00,,,0.00,0,Wunderground v.1.15,2013-09-30 02:08:00,
2013-09-29 20:13:00,55.7,36.8,29.40,SSW,209,16.0,28.0,49,0.00,,,0.00,0,Wunderground v.1.15,2013-09-30 02:13:00,
2013-09-29 20:18:00,55.6,36.7,29.40,SSE,150,22.0,30.0,49,0.00,,,0.00,0,Wunderground v.1.15,2013-09-30 02:18:00,
2013-09-29 20:23:00,55.4,37.1,29.41,WSW,241,20.0,30.0,50,0.00,,,0.00,0,Wunderground v.1.15,2013-09-30 02:23:00,
2013-09-29 20:28:00,55.2,36.9,29.40,SW,224,19.0,30.0,50,0.00,,,0.00,0,Wunderground v.1.15,2013-09-30 02:28:00,
2013-09-29 20:33:00,55.1,37.3,29.41,WSW,258,33.0,39.0,51,0.00,,,0.00,0,Wunderground v.1.15,2013-09-30 02:33:00,
2013-09-29 20:38:00,55.1,37.3,29.41,SW,222,23.0,39.0,51,0.00,,,0.00,0,Wunderground v.1.15,2013-09-30 02:38:00,
2013-09-29 20:43:00,54.9,37.6,29.40,SSW,207,25.0,32.0,52,0.00,,,0.00,0,Wunderground v.1.15,2013-09-30 02:43:00,
2013-09-29 20:48:00,54.6,37.8,29.40,SSE,163,21.0,35.0,53,0.00,,,0.00,0,Wunderground v.1.15,2013-09-30 02:48:00,
2013-09-29 20:53:00,54.3,37.5,29.41,West,271,10.0,30.0,53,0.00,,,0.00,0,Wunderground v.1.15,2013-09-30 02:53:00,
2013-09-29 20:58:00,54.3,37.5,29.41,SW,218,34.0,34.0,53,0.00,,,0.00,0,Wunderground v.1.15,2013-09-30 02:58:00,
2013-09-29 21:03:00,54.2,37.4,29.41,WSW,248,23.0,37.0,53,0.00,,,0.00,0,Wunderground v.1.15,2013-09-30 03:03:00,
2013-09-29 21:08:00,54.2,37.4,29.41,SW,229,17.0,37.0,53,0.00,,,0.00,0,Wunderground v.1.15,2013-09-30 03:08:00,
2013-09-29 21:13:00,54.4,37.6,29.41,SW,228,11.0,30.0,53,0.00,,,0.00,0,Wunderground v.1.15,2013-09-30 03:13:00,
2013-09-29 21:18:00,54.4,37.6,29.41,South,185,15.0,30.0,53,0.00,,,0.00,0,Wunderground v.1.15,2013-09-30 03:18:00,
2013-09-29 21:23:00,54.5,37.7,29.41,SSW,210,22.0,34.0,53,0.00,,,0.00,0,Wunderground v.1.15,2013-09-30 03:23:00,
2013-09-29 21:28:00,54.6,37.8,29.41,WSW,249,28.0,38.0,53,0.00,,,0.00,0,Wunderground v.1.15,2013-09-30 03:28:00,
2013-09-29 21:33:00,54.5,37.7,29.41,SSW,204,23.0,27.0,53,0.00,,,0.00,0,Wunderground v.1.15,2013-09-30 03:33:00,
2013-09-29 21:38:00,54.4,37.6,29.41,SSW,204,19.0,27.0,53,0.00,,,0.00,0,Wunderground v.1.15,2013-09-30 03:38:00,
2013-09-29 21:43:00,54.5,37.7,29.40,South,180,14.0,34.0,53,0.00,,,0.00,0,Wunderground v.1.15,2013-09-30 03:43:00,
2013-09-29 21:49:00,54.5,37.7,29.41,SSW,197,14.0,39.0,53,0.00,,,0.00,0,Wunderground v.1.15,2013-09-30 03:49:00,
2013-09-29 21:54:00,54.3,37.5,29.40,SW,229,17.0,34.0,53,0.00,,,0.00,0,Wunderground v.1.15,2013-09-30 03:54:00,
2013-09-29 21:59:00,54.2,37.4,29.39,SSW,204,16.0,34.0,53,0.00,,,0.00,0,Wunderground v.1.15,2013-09-30 03:59:00,
2013-09-29 22:01:00,54.2,37.4,29.39,WSW,240,27.0,35.0,53,0.00,,,0.00,0,Wunderground v.1.15,2013-09-30 04:01:00,
2013-09-29 22:02:00,54.1,37.3,29.39,South,185,33.0,35.0,53,0.00,,,0.00,0,Wunderground v.1.15,2013-09-30 04:02:00,
2013-09-29 22:07:00,54.3,37.5,29.39,SSW,198,16.0,37.0,53,0.00,,,0.00,0,Wunderground v.1.15,2013-09-30 04:07:00,
2013-09-29 22:12:00,54.3,37.5,29.39,SSE,168,28.0,41.0,53,0.00,,,0.00,0,Wunderground v.1.15,2013-09-30 04:12:00,
2013-09-29 22:17:00,54.4,37.1,29.40,SSW,213,25.0,41.0,52,0.00,,,0.00,0,Wunderground v.1.15,2013-09-30 04:17:00,
2013-09-29 22:22:00,54.5,37.2,29.39,SW,218,23.0,33.0,52,0.00,,,0.00,0,Wunderground v.1.15,2013-09-30 04:22:00,
2013-09-29 22:27:00,54.5,37.2,29.40,SW,215,27.0,34.0,52,0.00,,,0.00,0,Wunderground v.1.15,2013-09-30 04:27:00,
2013-09-29 22:32:00,54.6,37.3,29.40,SSW,199,21.0,29.0,52,0.00,,,0.00,0,Wunderground v.1.15,2013-09-30 04:32:00,
2013-09-29 22:37:00,54.5,37.2,29.41,WSW,250,15.0,29.0,52,0.00,,,0.00,0,Wunderground v.1.15,2013-09-30 04:37:00,
2013-09-29 22:42:00,54.5,37.2,29.41,SW,224,16.0,26.0,52,0.00,,,0.00,0,Wunderground v.1.15,2013-09-30 04:42:00,
2013-09-29 22:47:00,54.4,37.1,29.41,SSW,211,23.0,32.0,52,0.00,,,0.00,0,Wunderground v.1.15,2013-09-30 04:47:00,
2013-09-29 22:52:00,54.6,37.3,29.41,SW,233,11.0,27.0,52,0.00,,,0.00,0,Wunderground v.1.15,2013-09-30 04:52:00,
2013-09-29 22:57:00,54.5,37.2,29.40,SW,235,12.0,30.0,52,0.00,,,0.00,0,Wunderground v.1.15,2013-09-30 04:57:00,
2013-09-29 23:02:00,54.4,37.6,29.40,SSE,151,16.0,24.0,53,0.00,,,0.00,0,Wunderground v.1.15,2013-09-30 05:02:00,
2013-09-29 23:07:00,54.4,37.6,29.40,SW,224,16.0,34.0,53,0.00,,,0.00,0,Wunderground v.1.15,2013-09-30 05:07:00,
2013-09-29 23:12:00,54.2,37.4,29.40,South,191,19.0,25.0,53,0.00,,,0.00,0,Wunderground v.1.15,2013-09-30 05:12:00,
2013-09-29 23:18:00,54.1,37.8,29.40,SSW,199,10.0,25.0,54,0.00,,,0.00,0,Wunderground v.1.15,2013-09-30 05:18:00,
2013-09-29 23:23:00,53.9,37.6,29.40,SW,220,14.0,29.0,54,0.00,,,0.00,0,Wunderground v.1.15,2013-09-30 05:23:00,
2013-09-29 23:28:00,53.8,37.5,29.39,South,170,17.0,30.0,54,0.00,,,0.00,0,Wunderground v.1.15,2013-09-30 05:28:00,
2013-09-29 23:33:00,53.7,37.9,29.40,SSW,195,24.0,31.0,55,0.00,,,0.00,0,Wunderground v.1.15,2013-09-30 05:33:00,
2013-09-29 23:38:00,53.6,37.8,29.40,SW,224,20.0,31.0,55,0.00,,,0.00,0,Wunderground v.1.15,2013-09-30 05:38:00,
2013-09-29 23:43:00,53.4,38.1,29.40,SSW,202,8.0,28.0,56,0.00,,,0.00,0,Wunderground v.1.15,2013-09-30 05:43:00,
2013-09-29 23:48:00,53.2,37.9,29.40,SSW,212,13.0,34.0,56,0.00,,,0.00,0,Wunderground v.1.15,2013-09-30 05:48:00,
2013-09-29 23:53:00,53.2,37.9,29.40,SW,218,15.0,31.0,56,0.00,,,0.00,0,Wunderground v.1.15,2013-09-30 05:53:00,
2013-09-29 23:58:00,53.3,38.0,29.40,WSW,252,22.0,31.0,56,0.00,,,0.00,0,Wunderground v.1.15,2013-09-30 05:58:00,